Regional Weather Roundup
Issued by NWS

Home | Current Version | Previous Version | Graphics & Text | Print | Product List | Glossary On
Versions: 1 2 3 4 5 6 7 8 9 10 11 12 13 14 15 16 17 18 19 20 21 22 23 24 25 26 27 28 29 30 31 32 33 34 35 36 37 38 39 40 41 42 43 44 45 46 47 48 49 50
000
ASUS43 KOAX 252110
RWRNE

WEATHER ROUNDUP FOR NEBRASKA
NATIONAL WEATHER SERVICE OMAHA NE
400 PM CDT FRI JUL 25 2014

NOTES: SATELLITE DATA IS BEING USED TO AUGMENT CLOUD COVER ABOVE
       12000 FEET.
       "FAIR" INDICATES FEW OR NO CLOUDS BELOW 12,000 FEET WITH NO
       SIGNIFICANT WEATHER AND/OR OBSTRUCTIONS TO VISIBILITY.

  * THESE STATIONS DO NOT REPORT WEATHER SUCH AS RAIN...SNOW OR FOG.

NEZ001>004-019>022-054>056-252200-
NEBRASKA PANHANDLE

CITY           SKY/WX    TMP DP  RH WIND       PRES   REMARKS
SCOTTSBLUFF    PTSUNNY   85  51  31 S12       29.97F
ALLIANCE       MOSUNNY   84  46  26 SE6       29.96F
CHADRON        SUNNY     86  45  23 VRB6      29.91F
KIMBALL        MOSUNNY   86  51  29 E5        30.03S
SIDNEY         MOSUNNY   91  50  24 NE7       30.01F
$$

NEZ057>060-069>072-079>082-252200-
SOUTHWEST NEBRASKA

CITY           SKY/WX    TMP DP  RH WIND       PRES   REMARKS
NORTH PLATTE   MOSUNNY   92  65  40 NE6       29.88F HX  94
IMPERIAL       MOSUNNY   90  60  36 N8        29.94F
LEXINGTON      MOSUNNY   92  69  46 N9        29.85S HX  96
MCCOOK         MOSUNNY   96  64  34 N13       29.87F HX  98
OGALLALA       MOSUNNY   89  57  33 NE5       29.93F
$$

NEZ005>010-023>029-035>040-094-252200-
NORTH CENTRAL NEBRASKA

CITY           SKY/WX    TMP DP  RH WIND       PRES   REMARKS
VALENTINE      SUNNY     89  61  38 N8G17     29.88S
AINSWORTH      SUNNY     87  64  45 N7        29.87F
BROKEN BOW     MOSUNNY   90  70  51 N12       29.86S HX  95
O`NEILL        SUNNY     92  61  34 N9        29.81S HX  92
ORD            MOSUNNY   89  70  53 N10       29.82S HX  94
THEDFORD       MOSUNNY   88  66  47 NE6       29.91S HX  90
$$

NEZ041-046>049-061>064-073>077-083>087-252200-
SOUTH CENTRAL NEBRASKA

CITY           SKY/WX    TMP DP  RH WIND       PRES   REMARKS
GRAND ISLAND   SUNNY     95  69  42 N10       29.80S HX 100
AURORA         SUNNY     92  71  50 NW5       29.79S HX  98
HASTINGS       SUNNY     90  64  42 N8        29.81S HX  91
HEBRON         PTSUNNY   98  62  30 W6        29.76R HX  99
HOLDREGE       PTSUNNY   90  68  48 N6        29.84F HX  94
KEARNEY *      MOSUNNY   93  70  46 NW10      29.84S HX  99
YORK           SUNNY     91  73  55 NW7       29.78S HX 100
$$

NEZ011>018-030>034-042>045-252200-
NORTHEAST NEBRASKA

CITY           SKY/WX    TMP DP  RH WIND       PRES   REMARKS
NORFOLK        MOSUNNY   91  71  51 N8        29.77S HX  97
ALBION         PTSUNNY   87  71  59 N9        29.79F HX  92
BLAIR          MOSUNNY   90  74  59 CALM      29.75S HX  99
COLUMBUS *     PTSUNNY   90  73  58 N8        29.77S HX  98
FREMONT        MOSUNNY   93  73  52 W5        29.75S HX 102
WAYNE          MOSUNNY   89  74  62 N5        29.78S HX  98
$$

NEZ050>053-065>068-078-088>093-252200-
SOUTHEAST NEBRASKA

CITY           SKY/WX    TMP DP  RH WIND       PRES   REMARKS
LINCOLN        MOSUNNY   99  70  38 W9        29.74S HX 106
OMAHA EPPLEY   MOSUNNY   92  75  57 E7        29.73S HX 103
BEATRICE       SUNNY     97  71  43 W7        29.74S HX 105
FALLS CITY     MOSUNNY  102  70  35 S13G22    29.71F HX 110
NEBRASKA CITY  MOSUNNY   98  69  38 SW9       29.72S HX 103
PLATTSMOUTH    PTSUNNY   96  69  41 W5        29.73S HX 101
$$

NEZ044-045-051>053-067-252200-
OMAHA AREA

CITY           SKY/WX    TMP DP  RH WIND       PRES   REMARKS
OMAHA EPPLEY   MOSUNNY   92  75  57 E7        29.73S HX 103
BLAIR          MOSUNNY   90  74  59 CALM      29.75S HX  99
FREMONT        MOSUNNY   93  73  52 W5        29.75S HX 102
MILLARD        MOSUNNY   93  73  51 CALM      29.72F HX 101
OFFUTT AFB     MOSUNNY   95  73  49 VRB6      29.72S HX 104
PLATTSMOUTH    PTSUNNY   96  69  41 W5        29.73S HX 101
WAHOO          FAIR      92  73  54 W7        29.74S HX 101
$$



USA.gov is the U.S. government's official web portal to all federal, state and local government web resources and services.